Tracking 19484 objects as of 18-Jan-2019
HD Live streaming from Space Station
objects crossing your sky now

INMARSAT 4-F2

Track INMARSAT 4-F2 now!
INMARSAT 4-F2 is classified as:


NORAD ID: 28899
Int'l Code: 2005-044A
Perigee: 35,779.9 km
Apogee: 35,808.0 km
Inclination: 2.8 °
Period: 1,436.1 minutes
Semi major axis: 42164 km
RCS: 4.4668 m2 (large)
Launch date: November 8, 2005
Source: International Mobile Satellite Organization (INMARSAT) (IM)
Launch site: SEA LAUNCH (SEAL)

Nearly the size of a double-decker bus; more than 600 channels.
aabbcc
Your satellite tracking list
Your tracking list is empty




NASA's NSSDC Master Catalog

Two Line Element Set (TLE):
1 28899U 05044A   19018.55983411  .00000016  00000-0  00000+0 0  9990
2 28899   2.7665  22.9693 0003329 287.7297  72.3909  1.00271074 48367
Source of the keplerian elements: AFSPC